FW6835 Weather Reports


Display with metric or nautical units.
time (UTC)temp
F
wind
direction
speed
MPH
gust
MPH
rain 1hr
in
rain 24hr
in
rain mn
in
humidity
%
barometer
mb
20260504215516 58 109 1.0 4.0 0.00 0.00 0.00 75 1012.2
20260504215020 58 61 1.0 4.0 0.00 0.00 0.00 75 1012.3
20260504214518 58 63 2.0 3.0 0.00 0.00 0.00 76 1012.2
20260504214016 58 67 2.0 3.0 0.00 0.00 0.00 76 1012.3
20260504213521 58 79 1.0 3.0 0.00 0.00 0.00 76 1012.4
20260504213016 58 80 1.0 3.0 0.00 0.00 0.00 76 1012.6
20260504212516 58 69 1.0 3.0 0.00 0.00 0.00 76 1012.6
20260504212015 58 51 0.0 3.0 0.00 0.00 0.00 76 1012.5
20260504211516 58 64 0.0 3.0 0.00 0.00 0.00 76 1012.5
20260504211015 58 65 0.0 3.0 0.00 0.00 0.00 76 1012.6
20260504210518 58 65 1.0 3.0 0.00 0.00 0.00 76 1012.5
20260504210015 57 68 1.0 3.0 0.00 0.00 0.00 76 1012.7
20260504205517 57 68 0.0 2.0 0.00 0.00 0.00 77 1012.6
20260504205015 57 69 0.0 2.0 0.00 0.00 0.00 76 1012.6
20260504204530 58 69 0.0 1.0 0.00 0.00 0.00 77 1012.7
20260504204015 58 69 0.0 2.0 0.00 0.00 0.00 76 1012.6
20260504203515 58 69 0.0 2.0 0.00 0.00 0.00 76 1012.6
20260504203014 58 71 0.0 2.0 0.00 0.00 0.00 75 1012.6
20260504202514 58 71 0.0 2.0 0.00 0.00 0.00 75 1012.7
20260504202014 58 71 0.0 2.0 0.00 0.00 0.00 75 1012.5
20260504201513 59 71 0.0 2.0 0.00 0.00 0.00 75 1012.6
20260504201013 59 71 0.0 0.0 0.00 0.00 0.00 75 1012.5
20260504200516 59 71 0.0 3.0 0.00 0.00 0.00 75 1012.6
20260504200015 59 71 0.0 3.0 0.00 0.00 0.00 76 1012.5
20260504195512 59 69 0.0 2.0 0.00 0.00 0.00 76 1012.4
20260504195012 59 69 0.0 2.0 0.00 0.00 0.00 76 1012.4
20260504194512 59 70 0.0 1.0 0.00 0.00 0.00 76 1012.5
20260504194012 59 70 0.0 2.0 0.00 0.00 0.00 76 1012.4
20260504193513 59 69 0.0 2.0 0.00 0.00 0.00 76 1012.5
20260504193020 59 48 0.0 2.0 0.00 0.00 0.00 76 1012.5
20260504192511 59 257 0.0 1.0 0.00 0.00 0.00 77 1012.5
20260504192013 59 257 0.0 1.0 0.00 0.00 0.00 77 1012.5
20260504191511 59 241 0.0 0.0 0.00 0.00 0.00 77 1012.6
20260504191011 59 241 0.0 0.0 0.00 0.00 0.00 76 1012.5
20260504190510 59 241 0.0 1.0 0.00 0.00 0.00 76 1012.5
20260504190010 59 241 0.0 2.0 0.00 0.00 0.00 76 1012.4
20260504185511 60 241 0.0 2.0 0.00 0.00 0.00 76 1012.4
20260504185012 60 239 0.0 2.0 0.00 0.00 0.00 75 1012.4
20260504184510 60 238 0.0 1.0 0.00 0.00 0.00 75 1012.2
20260504184012 60 239 0.0 0.0 0.00 0.00 0.00 75 1012.3
20260504183510 61 239 0.0 0.0 0.00 0.00 0.00 74 1012.3
20260504183009 61 238 0.0 0.0 0.00 0.00 0.00 73 1012.3
20260504182508 62 238 0.0 0.0 0.00 0.00 0.00 73 1012.3
20260504182010 62 238 0.0 0.0 0.00 0.00 0.00 72 1012.1
20260504181510 63 238 0.0 0.0 0.00 0.00 0.00 71 1012.2
20260504181007 63 238 0.0 0.0 0.00 0.00 0.00 70 1012.1
20260504180509 63 238 0.0 0.0 0.00 0.00 0.00 70 1012.1
20260504180007 64 238 0.0 0.0 0.00 0.00 0.00 69 1012.2
20260504175506 64 238 0.0 0.0 0.00 0.00 0.00 69 1012.2
20260504175006 64 233 0.0 0.0 0.00 0.00 0.00 68 1012.1
20260504174506 65 233 0.0 0.0 0.00 0.00 0.00 68 1012.2
20260504174007 65 233 0.0 1.0 0.00 0.00 0.00 67 1012.0
20260504173506 65 232 0.0 2.0 0.00 0.00 0.00 66 1012.0
20260504173006 66 246 0.0 2.0 0.00 0.00 0.00 66 1012.1
20260504172504 66 265 0.0 2.0 0.00 0.00 0.00 65 1012.1
20260504172004 66 266 0.0 4.0 0.00 0.00 0.00 64 1012.1
20260504171516 67 22 0.0 4.0 0.00 0.00 0.00 64 1012.1
20260504171005 67 229 0.0 2.0 0.00 0.00 0.00 63 1012.0
20260504170503 67 292 0.0 1.0 0.00 0.00 0.00 63 1012.1
20260504151057 70 144 2.0 7.0 0.00 0.00 0.00 52 1012.2
20260504150600 70 186 2.0 7.0 0.00 0.00 0.00 51 1012.0
20260504141053 72 191 3.0 8.0 0.00 0.00 0.00 50 1012.5
20260504140552 71 239 2.0 7.0 0.00 0.00 0.00 54 1012.5
20260504130545 69 265 1.0 6.0 0.00 0.00 0.00 55 1013.0
20260504110539 69 202 1.0 7.0 0.00 0.00 0.00 57 1013.7
20260504100532 67 246 2.0 6.0 0.00 0.00 0.00 63 1014.3
20260504081525 64 228 1.0 4.0 0.00 0.00 0.00 58 1014.3
20260504081017 63 211 2.0 7.0 0.00 0.00 0.00 56 1014.4
20260504080520 63 209 1.0 7.0 0.00 0.00 0.00 58 1014.3
20260504050548 56 127 0.0 4.0 0.00 0.00 0.00 62 1013.7
20260504045546 56 97 1.0 5.0 0.00 0.00 0.00 60 1013.5
20260504045044 56 53 1.0 6.0 0.00 0.00 0.00 60 1013.5
20260504044545 56 80 1.0 6.0 0.00 0.00 0.00 60 1013.3
20260504044045 56 80 1.0 5.0 0.00 0.00 0.00 60 1013.3
20260504043544 56 84 2.0 5.0 0.00 0.00 0.00 60 1013.4
20260504043044 56 76 1.0 3.0 0.00 0.00 0.00 60 1013.3
20260504042547 56 77 1.0 5.0 0.00 0.00 0.00 61 1013.2
20260504042048 56 55 1.0 5.0 0.00 0.00 0.00 61 1013.1
20260504041545 56 86 2.0 4.0 0.00 0.00 0.00 61 1013.1
20260504041041 56 81 2.0 6.0 0.00 0.00 0.00 61 1013.1
20260504040539 56 76 2.0 7.0 0.00 0.00 0.00 61 1013.1
20260504040038 56 76 2.0 6.0 0.00 0.00 0.00 61 1013.2
20260504035540 56 88 2.0 5.0 0.00 0.00 0.00 62 1013.3
20260504035036 56 82 2.0 5.0 0.00 0.00 0.00 62 1013.2
20260504034540 56 81 2.0 6.0 0.00 0.00 0.00 61 1013.3
20260504034034 56 90 2.0 6.0 0.00 0.00 0.00 61 1013.3
20260504033535 56 74 1.0 6.0 0.00 0.00 0.00 61 1013.5
20260504033034 56 99 1.0 6.0 0.00 0.00 0.00 61 1013.6
20260504032535 56 69 1.0 5.0 0.00 0.00 0.00 61 1013.7
20260504032033 56 52 1.0 3.0 0.00 0.00 0.00 61 1013.7
20260504031533 56 88 0.0 3.0 0.00 0.00 0.00 60 1013.8
20260504031032 56 79 0.0 4.0 0.00 0.00 0.00 61 1013.8
20260504030531 57 78 1.0 4.0 0.00 0.00 0.00 60 1013.9
20260504030039 57 53 1.0 3.0 0.00 0.00 0.00 60 1013.9
20260504025531 57 94 0.0 4.0 0.00 0.00 0.00 60 1013.9
20260504025032 57 95 2.0 4.0 0.00 0.00 0.00 60 1013.9
20260504024530 57 67 1.0 6.0 0.00 0.00 0.00 59 1013.9
20260504024034 57 81 2.0 6.0 0.00 0.00 0.00 59 1013.6
20260504023529 57 82 2.0 6.0 0.00 0.00 0.00 59 1013.6
20260504023031 57 90 2.0 6.0 0.00 0.00 0.00 59 1013.7
20260504022529 57 59 2.0 6.0 0.00 0.00 0.00 60 1013.8
20260504022028 57 91 2.0 6.0 0.00 0.00 0.00 60 1013.6
20260504021528 57 93 2.0 4.0 0.00 0.00 0.00 60 1013.7
20260504021029 57 88 1.0 4.0 0.00 0.00 0.00 60 1013.7
20260504020526 58 83 1.0 4.0 0.00 0.00 0.00 60 1013.7
20260504020026 58 92 1.0 6.0 0.00 0.00 0.00 60 1013.6
20260504015526 58 92 2.0 6.0 0.00 0.00 0.00 60 1013.7
20260504015030 58 84 1.0 4.0 0.00 0.00 0.00 60 1013.6
20260504014526 58 80 0.0 3.0 0.00 0.00 0.00 60 1013.6
20260504014028 58 76 1.0 3.0 0.00 0.00 0.00 59 1013.6
20260504013528 58 84 0.0 4.0 0.00 0.00 0.00 60 1013.6
20260504013025 58 85 2.0 4.0 0.00 0.00 0.00 59 1013.7
20260504012525 58 86 0.0 4.0 0.00 0.00 0.00 60 1013.6
20260504012023 58 86 1.0 4.0 0.00 0.00 0.00 59 1013.6
20260504011523 58 76 0.0 4.0 0.00 0.00 0.00 60 1013.5
20260504011023 58 82 1.0 4.0 0.00 0.00 0.00 59 1013.6
20260504010523 58 96 1.0 3.0 0.00 0.00 0.00 59 1013.5
20260504010022 58 150 0.0 2.0 0.00 0.00 0.00 59 1013.5
20260504005525 58 150 0.0 5.0 0.00 0.00 0.00 59 1013.4
20260504005020 58 151 0.0 7.0 0.00 0.00 0.00 59 1013.4
20260504004523 59 142 1.0 7.0 0.00 0.00 0.00 58 1013.4
20260504004019 59 46 0.0 5.0 0.00 0.00 0.00 58 1013.4
20260504003519 59 40 2.0 5.0 0.00 0.00 0.00 58 1013.3
20260504003019 59 278 1.0 5.0 0.00 0.00 0.00 58 1013.4
20260504002518 59 242 2.0 5.0 0.00 0.00 0.00 58 1013.4
20260504002017 59 277 0.0 3.0 0.00 0.00 0.00 58 1013.4
20260504001517 59 277 0.0 4.0 0.00 0.00 0.00 58 1013.3
20260504001015 59 271 1.0 5.0 0.00 0.00 0.00 57 1013.2
20260504000515 60 112 1.0 9.0 0.00 0.00 0.00 57 1013.2
20260504000013 60 80 3.0 15.0 0.00 0.00 0.00 56 1013.4
20260503235512 60 80 5.0 15.0 0.00 0.00 0.00 56 1013.1
20260503235013 60 47 4.0 9.0 0.00 0.00 0.00 56 1013.4
20260503234525 60 88 3.0 10.0 0.00 0.00 0.00 56 1013.3
20260503234011 60 94 3.0 11.0 0.00 0.00 0.00 56 1013.3
20260503233510 60 162 3.0 10.0 0.00 0.00 0.00 56 1013.3
20260503233010 60 55 4.0 10.0 0.00 0.00 0.00 56 1013.1
20260503232509 60 80 4.0 11.0 0.00 0.00 0.00 56 1013.3
20260503232009 60 86 3.0 9.0 0.00 0.00 0.00 56 1013.2
20260503231508 61 105 1.0 6.0 0.00 0.00 0.00 56 1013.3
20260503231013 61 281 1.0 6.0 0.00 0.00 0.00 56 1013.2
20260503230512 61 43 1.0 8.0 0.00 0.00 0.00 55 1013.2
20260503230008 61 5 4.0 8.0 0.00 0.00 0.00 56 1013.3
20260503225506 61 161 1.0 8.0 0.00 0.00 0.00 55 1013.3
20260503225006 61 360 2.0 8.0 0.00 0.00 0.00 55 1013.3
20260503224507 61 106 3.0 8.0 0.00 0.00 0.00 55 1013.3
20260503224005 61 13 2.0 9.0 0.00 0.00 0.00 55 1013.1
20260503223505 61 32 3.0 10.0 0.00 0.00 0.00 55 1013.2
20260503223004 61 61 2.0 10.0 0.00 0.00 0.00 55 1013.0
20260503222505 61 78 3.0 6.0 0.00 0.00 0.00 55 1013.1
20260503222002 61 190 2.0 10.0 0.00 0.00 0.00 54 1012.8
20260503221503 62 71 4.0 10.0 0.00 0.00 0.00 54 1013.0
20260503221002 62 88 3.0 10.0 0.00 0.00 0.00 54 1013.0
20260503220502 62 87 2.0 10.0 0.00 0.00 0.00 54 1013.0
20260503220104 62 94 4.0 8.0 0.00 0.00 0.00 54 1013.0